This is the latest recevied weather packets stored in our database for station/object K5RWS. If no packets are shown the sender has not sent any weather packets the latest 10 day(s).
| Time | Temp. | Humidity | Pressure | Rain* | Wind** | Luminosity | Snow |
|---|---|---|---|---|---|---|---|
| 1777732458 | 8.89° C | 67% | 1026.4 hPa | 0 mm | - | 297 W/m² | - |
| 1777732155 | 8.33° C | 69% | 1026.8 hPa | 0 mm | - | 185 W/m² | - |
| 1777731852 | 8.33° C | 70% | 1026.6 hPa | 0 mm | - | 125 W/m² | - |
| 1777731548 | 8.33° C | 70% | 1026.4 hPa | 0 mm | - | 111 W/m² | - |
| 1777731247 | 8.33° C | 70% | 1026.5 hPa | 0 mm | - | 144 W/m² | - |
| 1777730944 | 8.33° C | 70% | 1026.3 hPa | 0 mm | - | 171 W/m² | - |
| 1777730642 | 8.33° C | 70% | 1026.4 hPa | 0 mm | - | 200 W/m² | - |
| 1777730338 | 7.78° C | 72% | 1026.4 hPa | 0 mm | - | 176 W/m² | - |
| 1777730034 | 7.78° C | 72% | 1026.3 hPa | 0 mm | - | 160 W/m² | - |
| 1777729730 | 7.78° C | 73% | 1026.4 hPa | 0 mm | - | 159 W/m² | - |
| 1777729428 | 7.22° C | 73% | 1026.5 hPa | 0 mm | - | 87 W/m² | - |
| 1777729124 | 7.22° C | 73% | 1026.1 hPa | 0 mm | - | 88 W/m² | - |
| 1777728821 | 7.22° C | 74% | 1026.2 hPa | 0 mm | - | 83 W/m² | - |
| 1777728518 | 7.22° C | 74% | 1026.5 hPa | 0 mm | - | 74 W/m² | - |
| 1777728215 | 6.67° C | 74% | 1026.2 hPa | 0 mm | - | 66 W/m² | - |
| 1777727912 | 6.67° C | 75% | 1026.1 hPa | 0 mm | - | 66 W/m² | - |
| 1777727609 | 6.67° C | 75% | 1025.9 hPa | 0 mm | - | 54 W/m² | - |
| 1777727306 | 6.67° C | 76% | 1025.9 hPa | 0 mm | - | 46 W/m² | - |
| 1777727004 | 6.67° C | 76% | 1025.7 hPa | 0 mm | - | 37 W/m² | - |
| 1777726700 | 6.67° C | 76% | 1025.7 hPa | 0 mm | - | 30 W/m² | - |
| 1777726398 | 6.67° C | 77% | 1025.7 hPa | 0 mm | - | 27 W/m² | - |
| 1777726094 | 6.67° C | 76% | 1025.6 hPa | 0 mm | - | 23 W/m² | - |
| 1777725791 | 6.67° C | 76% | 1025.4 hPa | 0 mm | - | 20 W/m² | - |
| 1777725489 | 6.67° C | 76% | 1025.5 hPa | 0 mm | - | 16 W/m² | - |
| 1777725186 | 6.67° C | 76% | 1025.5 hPa | 0 mm | - | 12 W/m² | - |
* Rain latest hour (hover to see other rain measurements)
** Current wind speed in m/s (hover to see current wind gust speed)